[keps] orb08220.amsat
Ray Hoad
r.hoad at att.net
Thu Aug 7 20:08:50 PDT 2008
SB KEPS @ AMSAT $ORB08220.O
Orbital Elements 08220.OSCAR
HR AMSAT ORBITAL ELEMENTS FOR OSCAR SATELLITES
FROM WA5QGD FORT WORTH,TX August 7, 2008
Send Subscribe/unsubscribe to KEPS at
http://www.amsat.org/mailman/listinfo/keps
BID: ORB08220.O
TO ALL RADIO AMATEURS BT
Satellite: AO-07
Catalog number: 07530
Epoch time: 08219.65149021
Element set: 0246
Inclination: 101.4627 deg
RA of node: 249.4551 deg
Eccentricity: 0.0011933
Arg of perigee: 162.3089 deg
Mean anomaly: 197.8404 deg
Mean motion: 12.53573855 rev/day
Decay rate: -2.7e-07 rev/day^2
Epoch rev: 54330
Checksum: 292
Satellite: AO-10
Catalog number: 14129
Epoch time: 08218.25999605
Element set: 0541
Inclination: 026.0156 deg
RA of node: 202.0853 deg
Eccentricity: 0.5971868
Arg of perigee: 146.0296 deg
Mean anomaly: 273.0677 deg
Mean motion: 02.05867875 rev/day
Decay rate: -1.0e-08 rev/day^2
Epoch rev: 18911
Checksum: 318
Satellite: UO-11
Catalog number: 14781
Epoch time: 08219.90384498
Element set: 0739
Inclination: 098.1506 deg
RA of node: 254.6871 deg
Eccentricity: 0.0008065
Arg of perigee: 270.8770 deg
Mean anomaly: 089.1501 deg
Mean motion: 14.79656141 rev/day
Decay rate: -1.51e-06 rev/day^2
Epoch rev: 31135
Checksum: 318
Satellite: RS-15
Catalog number: 23439
Epoch time: 08219.92281723
Element set: 0168
Inclination: 064.8154 deg
RA of node: 053.0042 deg
Eccentricity: 0.0147119
Arg of perigee: 113.0595 deg
Mean anomaly: 248.5917 deg
Mean motion: 11.27552735 rev/day
Decay rate: -3.9e-07 rev/day^2
Epoch rev: 56068
Checksum: 308
Satellite: FO-29
Catalog number: 24278
Epoch time: 08219.92807608
Element set: 0848
Inclination: 098.5822 deg
RA of node: 129.5725 deg
Eccentricity: 0.0351363
Arg of perigee: 084.2436 deg
Mean anomaly: 279.8646 deg
Mean motion: 13.52938885 rev/day
Decay rate: -8.0e-08 rev/day^2
Epoch rev: 59125
Checksum: 364
Satellite: SO-33
Catalog number: 25509
Epoch time: 08219.58775385
Element set: 258
Inclination: 031.4295 deg
RA of node: 031.3707 deg
Eccentricity: 0.0354301
Arg of perigee: 107.9422 deg
Mean anomaly: 256.0117 deg
Mean motion: 14.28218548 rev/day
Decay rate: -1.4e-07 rev/day^2
Epoch rev: 51082
Checksum: 294
Satellite: AO-40
Catalog number: 26609
Epoch time: 08218.96565505
Element set: 99
Inclination: 007.6627 deg
RA of node: 068.1686 deg
Eccentricity: 0.7926541
Arg of perigee: 109.0958 deg
Mean anomaly: 344.1528 deg
Mean motion: 01.25584502 rev/day
Decay rate: -2.72e-06 rev/day^2
Epoch rev: 3566
Checksum: 335
Satellite: VO-52
Catalog number: 28650
Epoch time: 08219.92716010
Element set: 0000
Inclination: 097.7860 deg
RA of node: 285.1373 deg
Eccentricity: 0.0026611
Arg of perigee: 337.7006 deg
Mean anomaly: 022.3020 deg
Mean motion: 14.81485986 rev/day
Decay rate: -2.74e-06 rev/day^2
Epoch rev: 17611
Checksum: 285
Satellite: PO-63
Catalog number: 29712
Epoch time: 08220.26151763
Element set: 685
Inclination: 097.8718 deg
RA of node: 277.4822 deg
Eccentricity: 0.0013394
Arg of perigee: 212.2342 deg
Mean anomaly: 147.8057 deg
Mean motion: 14.80230259 rev/day
Decay rate: 3.22e-06 rev/day^2
Epoch rev: 8502
Checksum: 298
/EX
SB KEPS @ AMSAT $ORB08220.D
Orbital Elements 08220.MICROS
HR AMSAT ORBITAL ELEMENTS FOR THE MICROSATS
FROM WA5QGD FORT WORTH,TX August 7, 2008
Send Subscribe/unsubscribe to KEPS at
http://www.amsat.org/mailman/listinfo/keps
BID: ORB08220.D
TO ALL RADIO AMATEURS BT
Satellite: AO-16
Catalog number: 20439
Epoch time: 08219.59596828
Element set: 387
Inclination: 098.2336 deg
RA of node: 197.0913 deg
Eccentricity: 0.0011650
Arg of perigee: 030.9150 deg
Mean anomaly: 329.2715 deg
Mean motion: 14.31799634 rev/day
Decay rate: -1.6e-07 rev/day^2
Epoch rev: 96813
Checksum: 329
Satellite: LO-19
Catalog number: 20442
Epoch time: 08219.91440483
Element set: 0314
Inclination: 098.2037 deg
RA of node: 205.7746 deg
Eccentricity: 0.0012455
Arg of perigee: 027.7978 deg
Mean anomaly: 332.3877 deg
Mean motion: 14.32037910 rev/day
Decay rate: 1.1e-07 rev/day^2
Epoch rev: 96833
Checksum: 305
Satellite: AO-27
Catalog number: 22825
Epoch time: 08219.60597773
Element set: 34
Inclination: 098.3878 deg
RA of node: 177.7464 deg
Eccentricity: 0.0009338
Arg of perigee: 110.5942 deg
Mean anomaly: 249.6238 deg
Mean motion: 14.29244485 rev/day
Decay rate: 6.0e-07 rev/day^2
Epoch rev: 77497
Checksum: 351
Satellite: IO-26
Catalog number: 22826
Epoch time: 08219.65125299
Element set: 0741
Inclination: 098.3801 deg
RA of node: 178.6767 deg
Eccentricity: 0.0009741
Arg of perigee: 105.3218 deg
Mean anomaly: 254.9036 deg
Mean motion: 14.29493114 rev/day
Decay rate: -3.5e-07 rev/day^2
Epoch rev: 77507
Checksum: 324
Satellite: PO-28
Catalog number: 22829
Epoch time: 08219.47314070
Element set: 7
Inclination: 098.3690 deg
RA of node: 179.6012 deg
Eccentricity: 0.0010771
Arg of perigee: 080.7514 deg
Mean anomaly: 279.4891 deg
Mean motion: 14.30194674 rev/day
Decay rate: 9.5e-07 rev/day^2
Epoch rev: 77531
Checksum: 315
Satellite: GO-32
Catalog number: 25397
Epoch time: 08219.80190546
Element set: 665
Inclination: 098.3614 deg
RA of node: 252.4577 deg
Eccentricity: 0.0002267
Arg of perigee: 097.7180 deg
Mean anomaly: 262.4265 deg
Mean motion: 14.23146058 rev/day
Decay rate: -1.35e-06 rev/day^2
Epoch rev: 52341
Checksum: 309
Satellite: NO-44
Catalog number: 26931
Epoch time: 08219.79972114
Element set: 0946
Inclination: 067.0527 deg
RA of node: 154.2721 deg
Eccentricity: 0.0007359
Arg of perigee: 266.0905 deg
Mean anomaly: 093.9362 deg
Mean motion: 14.29529480 rev/day
Decay rate: -9.6e-07 rev/day^2
Epoch rev: 35764
Checksum: 337
Satellite: SO-50
Catalog number: 27607
Epoch time: 08219.64228090
Element set: 0671
Inclination: 064.5583 deg
RA of node: 260.4065 deg
Eccentricity: 0.0086427
Arg of perigee: 269.7437 deg
Mean anomaly: 089.3775 deg
Mean motion: 14.71372602 rev/day
Decay rate: 6.2e-07 rev/day^2
Epoch rev: 30239
Checksum: 319
Satellite: CO-55
Catalog number: 27844
Epoch time: 08219.72597670
Element set: 0368
Inclination: 098.7161 deg
RA of node: 227.2913 deg
Eccentricity: 0.0009673
Arg of perigee: 337.2504 deg
Mean anomaly: 022.8230 deg
Mean motion: 14.20590516 rev/day
Decay rate: 1.0e-07 rev/day^2
Epoch rev: 26461
Checksum: 303
Satellite: CO-57
Catalog number: 27848
Epoch time: 08219.51954303
Element set: 0318
Inclination: 098.7167 deg
RA of node: 226.1751 deg
Eccentricity: 0.0009841
Arg of perigee: 340.8528 deg
Mean anomaly: 019.2275 deg
Mean motion: 14.20399224 rev/day
Decay rate: 1.7e-07 rev/day^2
Epoch rev: 26455
Checksum: 320
Satellite: AO-51
Catalog number: 28375
Epoch time: 08219.61234850
Element set: 0167
Inclination: 098.0689 deg
RA of node: 241.3418 deg
Eccentricity: 0.0084985
Arg of perigee: 000.4495 deg
Mean anomaly: 359.6757 deg
Mean motion: 14.40614960 rev/day
Decay rate: -5.0e-08 rev/day^2
Epoch rev: 21566
Checksum: 328
Satellite: CO-56
Catalog number: 28941
Epoch time: 08220.38515539
Element set: 266
Inclination: 098.1103 deg
RA of node: 338.1915 deg
Eccentricity: 0.0159725
Arg of perigee: 214.3717 deg
Mean anomaly: 144.7254 deg
Mean motion: 15.58757865 rev/day
Decay rate: 1.9158e-04 rev/day^2
Epoch rev: 13801
Checksum: 335
Satellite: CP3
Catalog number: 31128
Epoch time: 08219.71071927
Element set: 399
Inclination: 098.0342 deg
RA of node: 281.0061 deg
Eccentricity: 0.0103372
Arg of perigee: 177.9327 deg
Mean anomaly: 182.2345 deg
Mean motion: 14.51965273 rev/day
Decay rate: -4.7e-07 rev/day^2
Epoch rev: 6926
Checksum: 302
Satellite: CP4
Catalog number: 31132
Epoch time: 08219.77027615
Element set: 380
Inclination: 098.0387 deg
RA of node: 283.4598 deg
Eccentricity: 0.0086183
Arg of perigee: 170.6088 deg
Mean anomaly: 189.6728 deg
Mean motion: 14.55134938 rev/day
Decay rate: 1.83e-06 rev/day^2
Epoch rev: 6930
Checksum: 333
/EX
SB KEPS @ AMSAT $ORB08220.W
Orbital Elements 08220.WEATHER
HR AMSAT ORBITAL ELEMENTS FOR WEATHER SATELLITES
FROM WA5QGD FORT WORTH,TX August 7, 2008
Send Subscribe/unsubscribe to KEPS at
http://www.amsat.org/mailman/listinfo/keps
BID: ORB08220.W
TO ALL RADIO AMATEURS BT
Satellite: NOAA-10
Catalog number: 16969
Epoch time: 08219.76610966
Element set: 0237
Inclination: 098.7208 deg
RA of node: 241.6305 deg
Eccentricity: 0.0012914
Arg of perigee: 037.7572 deg
Mean anomaly: 322.4500 deg
Mean motion: 14.27364655 rev/day
Decay rate: -1.20e-06 rev/day^2
Epoch rev: 13865
Checksum: 304
Satellite: NOAA-11
Catalog number: 19531
Epoch time: 08219.30616110
Element set: 0269
Inclination: 098.7979 deg
RA of node: 307.9331 deg
Eccentricity: 0.0010781
Arg of perigee: 286.9546 deg
Mean anomaly: 073.0479 deg
Mean motion: 14.14874704 rev/day
Decay rate: 1.90e-06 rev/day^2
Epoch rev: 02499
Checksum: 322
Satellite: NOAA-12
Catalog number: 21263
Epoch time: 08219.94827656
Element set: 0800
Inclination: 098.7684 deg
RA of node: 221.8982 deg
Eccentricity: 0.0012476
Arg of perigee: 343.6598 deg
Mean anomaly: 016.4177 deg
Mean motion: 14.25541381 rev/day
Decay rate: 2.3e-07 rev/day^2
Epoch rev: 89562
Checksum: 330
Satellite: MET-3/5
Catalog number: 21655
Epoch time: 08219.94063836
Element set: 0502
Inclination: 082.5505 deg
RA of node: 068.5242 deg
Eccentricity: 0.0012124
Arg of perigee: 247.4587 deg
Mean anomaly: 112.5253 deg
Mean motion: 13.17016333 rev/day
Decay rate: 5.1e-07 rev/day^2
Epoch rev: 81626
Checksum: 279
Satellite: MET-2/21
Catalog number: 22782
Epoch time: 08219.68479757
Element set: 0218
Inclination: 082.5436 deg
RA of node: 071.5167 deg
Eccentricity: 0.0023192
Arg of perigee: 145.2466 deg
Mean anomaly: 215.0210 deg
Mean motion: 13.83629981 rev/day
Decay rate: -1.9e-07 rev/day^2
Epoch rev: 75411
Checksum: 311
Satellite: OKEAN-4
Catalog number: 23317
Epoch time: 08219.74160542
Element set: 0661
Inclination: 082.5377 deg
RA of node: 267.8988 deg
Eccentricity: 0.0021178
Arg of perigee: 324.8070 deg
Mean anomaly: 035.1744 deg
Mean motion: 14.82627077 rev/day
Decay rate: 1.47e-06 rev/day^2
Epoch rev: 74577
Checksum: 325
